Regional Weather Roundup
Issued by NWS

Home | Current Version | Previous Version | Graphics & Text | Print | Product List | Glossary On
Versions: 1 2 3 4 5 6 7 8 9 10 11 12 13 14 15 16 17 18 19 20 21 22 23 24 25 26 27 28 29 30 31 32 33 34 35 36 37 38 39 40 41 42 43 44 45 46 47 48 49 50
000
ASUS45 KPSR 301600
RWRAZ

PRELIMINARY ARIZONA REGIONAL HOURLY WEATHER ROUNDUP
NATIONAL WEATHER SERVICE PHOENIX AZ
900 AM MST THU OCT 30 2014

NOTE: FAIR INDICATES FEW OR NO CLOUDS BELOW 12,000 FEET WITH NO
SIGNIFICANT WEATHER AND/OR OBSTRUCTIONS TO VISIBILITY.

AZZ001>003-036-301700-
NORTHWEST ARIZONA

CITY           SKY/WX    TMP DP  RH WIND       PRES   REMARKS
KINGMAN        SUNNY     65  31  28 CALM      30.16R
$$

AZZ004>008-015-016-018-301700-
NORTH CENTRAL ARIZONA

CITY           SKY/WX    TMP DP  RH WIND       PRES   REMARKS
GRAND CANYON   SUNNY     60  20  21 E10       30.36R
PRESCOTT       SUNNY     57  30  35 NE5       30.27R
FLAGSTAFF      SUNNY     51  25  36 NE5       30.39R
PAYSON         SUNNY     66  30  26 CALM      30.28S
PAGE           SUNNY     54  20  26 NW5       30.31R
$$

AZZ009>014-017-301700-
NORTHEAST ARIZONA

CITY           SKY/WX    TMP DP  RH WIND       PRES   REMARKS
WINSLOW        NOT AVBL
SAINT JOHNS    SUNNY     51  26  37 CALM      30.34R
WINDOW ROCK    SUNNY     47  15  27 SW6       30.40S
$$

AZZ023-301700-
GREATER PHOENIX AREA

CITY           SKY/WX    TMP DP  RH WIND       PRES   REMARKS
PHOENIX        MOSUNNY   75  42  30 SE7       30.03R
BUCKEYE        SUNNY     68  39  34 CALM      30.04R
GLENDALE       MOSUNNY   70  46  43 CALM      30.05R
DEER VALLEY    SUNNY     77  37  23 CALM      30.04R
SCOTTSDALE     SUNNY     71  45  39 CALM      30.06R
MESA-FALCON    SUNNY     70  37  30 N6        30.04S
MESA-GATEWAY   MOSUNNY   70  43  37 SE3       30.06R
CHANDLER       MOSUNNY   66  48  52 CALM      30.05R
$$

AZZ027-028-301700-
SOUTHWEST MARICOPA COUNTY AND PINAL COUNTY

CITY           SKY/WX    TMP DP  RH WIND       PRES   REMARKS
CASA GRANDE    SUNNY     70  43  37 CALM      30.06S
GILA BEND      MOSUNNY   70  43  37 NE5       30.02R
$$

AZZ503-504-507>509-301700-
SOUTHEAST ARIZONA

CITY           SKY/WX    TMP DP  RH WIND       PRES   REMARKS
TUCSON         SUNNY     69  41  36 SE7       30.12S
RYAN FIELD       N/A     66  45  45 E7        30.11S
NOGALES        SUNNY     66  41  40 CALM      30.18R
SIERRA VISTA   MOSUNNY   70  41  35 CALM      30.23R
SAFFORD        SUNNY     67  35  30 E12       30.18S
$$

AZZ020-021-025-026-031-301700-
SOUTHWEST ARIZONA

CITY           SKY/WX    TMP DP  RH WIND       PRES   REMARKS
YUMA             N/A     76  35  22 MISG      29.97R
$$

CAZ031-033-041-043-047-048-061-301700-
SOUTHERN CALIFORNIA

CITY           SKY/WX    TMP DP  RH WIND       PRES   REMARKS
DOWNTOWN L.A.  SUNNY     66  51  58 N3        29.99R
L.A. AIRPORT   MOSUNNY   66  60  81 E3        30.00R
SAN DIEGO      PTSUNNY   67  53  61 CALM      30.01R
BURBANK        SUNNY     63  48  58 CALM      30.01R
ONTARIO        PTSUNNY   66  46  48 CALM      30.01R
RIVERSIDE      MOSUNNY   61  47  59 NE5       30.01S
EL CENTRO NAS  PTSUNNY   70  29  21 W6        29.97R
IMPERIAL       MOSUNNY   69  34  27 CALM      29.97R
BLYTHE         SUNNY     66  35  31 CALM      30.01R
$$

NVZ020-UTZ003-301700-
SOUTHERN NEVADA-UTAH

CITY           SKY/WX    TMP DP  RH WIND       PRES   REMARKS
LAS VEGAS      NOT AVBL
SALT LAKE CITY MOSUNNY   50  29  44 SE7       30.26F
$$

NMZ009-TXZ055-301700-
NEW MEXICO-WEST TEXAS

CITY           SKY/WX    TMP DP  RH WIND       PRES   REMARKS
ALBUQUERQUE    SUNNY     53  14  21 N10       30.36R
EL PASO        SUNNY     62  38  40 N10       30.24R
$$


........................KEY........................
SKY/WX - SKY CONDITION/WEATHER
TMP    - TEMPERATURE IN FAHRENHEIT
DP     - DEW POINT IN FAHRENHEIT
RH     - RELATIVE HUMIDITY IN PERCENT
WIND   - DIRECTION AND SPEED IN MILES PER HOUR (MPH)
VRB    - VARIABLE WIND DIRECTION
PRES   - MEAN SEA LEVEL PRESSURE IN INCHES OF MERCURY
         F - FALLING PRESSURE   R - RISING PRESSURE
         S - STEADY PRESSURE
VSB    - VISIBILITY IN MILES
HX     - HEAT INDEX IN FAHRENHEIT
WCI    - WIND CHILL INDEX IN FAHRENHEIT
TC     - TEMPERATURE IN CELSIUS WHICH IS ALSO KNOWN AS
         TEMPERATURE IN CENTIGRADE
AFB    - AIR FORCE BASE
         LUKE AFB IS LUKE AIR FORCE BASE
         DAVIS-MONTHAN IS DAVIS-MONTHAN AIR FORCE BASE
NAS    - NAVAL AIR STATION
         EL CENTRO NAS IS EL CENTRO NAVAL AIR STATION
N/A    - NOT AVAILABLE



USA.gov is the U.S. government's official web portal to all federal, state and local government web resources and services.